Back to catalog

FENGYUN 1C DEB

AliveSSO
NORAD 30370·DEBRIS·🇨🇳 China

Launched May 10, 1999 from Taiyuan Satellite Launch Center

Loading…

Next Passes (next 24 hours)

TLE

FreshSource: Space-Track

Epoch: Sep 14, 2026, 03:19 UTC

1 30370U 99025ACH 26257.13829288  .00001268  00000-0  58579-3 0  9995
2 30370  99.0349 324.0405 0099009 251.1481 138.1138 14.20271783 10029

Track FENGYUN 1C DEB in real time with AllMySat

Download on the App Store